[[{"header":{"parameterUnit":"m.s-1","parameterCategory":1,"la1":30.2991,"la2":30.254,"lo1":-89.0895,"lo2":-89.0444,"dy":0.0017,"dx":0.0017,"nx":28,"ny":28,"refTime":"2023-08-21T21:00:00:Z","depth":0,"parameterNumber":2,"parameterNumberName":"U-component_of_WINDS"},"data":[0,0,0,0,0,0,0,0,0,0,0,0,0,0,0,0,0,0,0,0,0,0,0,0,0,0,0,0,0,0,0,0,0,0,0,0,0,0,0,0,0,0,0,0,0,0,0,0,0,0,0,0,0,0,0,0,0,0,-3.1486,-3.1485,0,-3.1436,-3.1436,-3.1435,-3.1295,-3.1292,-3.1289,-3.1286,-3.1239,-3.124,-3.1242,0,0,0,0,0,0,0,0,0,0,0,0,0,-3.1463,-3.1464,-3.1486,-3.1485,-3.1485,-3.1436,-3.1436,-3.1435,-3.1295,-3.1291,-3.1288,-3.1284,-3.1238,-3.124,-3.1242,0,0,0,0,0,0,0,0,0,0,0,0,0,-3.1449,-3.1464,-3.1486,-3.1409,-3.1402,-3.1436,-3.1436,-3.1435,-3.1296,-3.1291,-3.1287,-3.1283,-3.1237,-3.124,-3.1242,-3.1349,0,0,-3.1249,-3.1251,0,0,0,0,0,0,0,0,-3.145,-3.145,-3.1421,-3.1414,-3.1406,-3.1367,-3.141,-3.1406,-3.1297,-3.1336,-3.1286,-3.128,-3.1285,-3.1283,-3.1284,-3.1347,-3.1345,-3.125,-3.1251,-3.1252,-3.1253,0,0,0,0,0,0,0,-3.1451,-3.1452,-3.1466,-3.1421,-3.1412,-3.1378,-3.1371,-3.1409,-3.1337,-3.1332,-3.1322,-3.1318,-3.128,-3.1282,-3.1282,-3.1344,-3.125,-3.1252,-3.1253,-3.1254,-3.149,-3.1495,0,0,0,0,0,0,-3.1463,-3.1453,-3.1468,-3.1465,-3.1417,-3.1382,-3.1374,-3.1384,-3.1336,-3.1325,-3.1322,-3.1312,-3.128,-3.128,-3.128,-3.14,-3.1252,-3.1254,-3.1256,-3.1485,-3.1491,-3.1497,0,0,0,0,0,0,-3.1463,-3.1465,-3.147,-3.1456,-3.1454,-3.1387,-3.14,-3.1386,-3.1387,-3.1328,-3.1315,-3.1337,-3.1277,-3.1277,-3.1332,-3.1397,-3.1255,-3.1258,-3.148,-3.1487,-3.1494,-3.1643,0,0,0,0,0,0,-3.1463,-3.1466,-3.1505,-3.1458,-3.1455,-3.1522,-3.1404,-3.1388,-3.1391,-3.1377,-3.1339,-3.1328,-3.1273,-3.1329,-3.1335,-3.1397,-3.126,-3.1474,-3.1483,-3.1492,-3.1632,-3.1654,-3.1674,0,0,0,0,0,-3.1463,-3.155,-3.1508,-3.1511,-3.1503,-3.1526,-3.1525,-3.1459,-3.1397,-3.1436,-3.1398,-3.1329,-3.1389,-3.1336,-3.1341,-3.1406,-3.1469,-3.148,-3.1491,-3.1622,-3.165,-3.1673,0,0,0,0,0,0,-3.1608,-3.1543,-3.1495,-3.157,-3.1555,-3.1502,-3.1549,-3.149,-3.1493,-3.148,-3.1399,-3.1392,-3.1458,-3.1438,-3.138,-3.1506,-3.1418,-3.143,-3.1516,-3.1542,-3.1562,-3.1565,-3.1262,0,0,0,0,0,-3.1649,-3.1672,-3.1614,-3.1686,-3.1681,-3.1617,-3.1625,-3.1575,-3.1557,-3.155,-3.1516,-3.1502,-3.1516,-3.1528,-3.1539,-3.1629,-3.1618,-3.1676,-3.1697,-3.1714,-3.1725,-3.177,-3.1795,-3.1532,-3.1532,-3.1532,0,0,-3.1733,-3.17,-3.172,-3.1715,-3.1697,-3.1724,-3.1612,-3.1646,-3.1665,-3.1555,-3.1604,-3.158,-3.1558,-3.1631,-3.1662,-3.1616,-3.1796,-3.1728,-3.1742,-3.1744,-3.1784,-3.1809,-3.1831,-3.154,-3.1538,-3.1537,0,0,-3.19,-3.1879,-3.1935,-3.1919,-3.1893,-3.185,-3.1864,-3.1821,-3.18,-3.1848,-3.1766,-3.1789,-3.1817,-3.1805,-3.1802,-3.1966,-3.1902,-3.1972,-3.208,-3.2125,-3.2145,-3.2163,-3.222,-3.2242,-3.1983,-3.1984,-3.1984,0,-3.2009,-3.2044,-3.1972,-3.201,-3.201,-3.1911,-3.1967,-3.1956,-3.1937,-3.1939,-3.1888,-3.1921,-3.19,-3.1968,-3.2008,-3.201,-3.2023,-3.1975,-3.2148,-3.2165,-3.2181,-3.2234,-3.2256,-3.1992,-3.1991,-3.1991,-3.199,0,-3.2178,-3.2205,-3.2254,-3.2235,-3.2241,-3.2289,-3.2224,-3.2239,-3.2189,-3.2152,-3.2203,-3.2174,-3.2177,-3.219,-3.2143,-3.2251,-3.2224,-3.2162,-3.2072,-3.2216,-3.2264,-3.2284,-3.2005,-3.2001,-3.1999,-3.1997,0,0,-3.2434,-3.2374,-3.2394,-3.2383,-3.2348,-3.2367,-3.2411,-3.2412,-3.2426,-3.2417,-3.2451,-3.2477,-3.242,-3.2417,-3.2368,-3.2408,-3.2537,-3.2341,-3.2339,-3.2377,-3.2654,-3.27,-3.2724,-3.2496,-3.25,-3.2502,-3.2655,0,-3.259,-3.2659,-3.2595,-3.2677,-3.2701,-3.2607,-3.2645,-3.2629,-3.2596,-3.2611,-3.2575,-3.2595,-3.2518,-3.2516,-3.2551,-3.2514,-3.2592,-3.2503,-3.2527,-3.2529,-3.2533,-3.275,-3.2798,-3.2943,-3.2674,-3.2677,-3.268,0,-3.2781,-3.2778,-3.2862,-3.282,-3.2828,-3.2863,-3.2859,-3.2875,-3.2854,-3.2828,-3.2825,-3.2765,-3.2806,-3.2719,-3.2774,-3.2715,-3.2722,-3.2705,-3.2709,-3.2708,-3.2612,-3.2752,-3.2988,-3.301,-3.2709,-3.2707,-3.2705,0,-3.2957,-3.2975,-3.3026,-3.3021,-3.2974,-3.3001,-3.2983,-3.2957,-3.2962,-3.296,-3.2962,-3.2966,-3.2967,-3.2972,-3.2914,-3.2856,-3.2976,-3.2885,-3.2955,-3.2957,-3.2983,-3.2981,-3.3222,-3.2991,-3.2991,-3.299,-3.299,0,-3.3137,-3.3192,-3.3104,-3.3136,-3.3195,-3.3122,-3.3183,-3.3155,-3.3134,-3.3159,-3.308,-3.3106,-3.303,-3.3048,-3.3004,-3.3056,-3.3058,-3.3037,-3.3024,-3.3043,-3.3045,-3.3045,-3.3032,-3.2996,-3.2995,-3.2993,-3.2993,0,-3.3343,-3.3286,-3.3336,-3.3288,-3.3277,-3.3323,-3.3281,-3.3309,-3.3271,-3.3305,-3.3309,-3.325,-3.3267,-3.3211,-3.322,-3.319,-3.3265,-3.3237,-3.3272,-3.3262,-3.3335,-3.3328,-3.3581,-3.361,-3.3363,-3.3366,-3.3368,0,-3.346,-3.3499,-3.3455,-3.3465,-3.3451,-3.347,-3.3474,-3.3405,-3.3412,-3.3392,-3.3423,-3.3433,-3.3438,-3.3471,-3.3429,-3.3436,-3.3406,-3.3494,-3.3406,-3.3424,-3.3405,-3.3403,-3.3406,-3.3512,-3.3515,-3.3517,-3.3519,0,-3.3674,-3.3644,-3.3652,-3.3651,-3.3658,-3.3654,-3.3645,-3.3659,-3.3584,-3.3597,-3.3613,-3.3617,-3.3625,-3.3637,-3.3635,-3.3617,-3.3557,-3.3548,-3.3564,-3.3582,-3.36,-3.359,-3.3319,-3.3542,-3.3539,-3.3538,-3.3537,-3.3536,-3.3837,-3.3867,-3.384,-3.3852,-3.3838,-3.3831,-3.3854,-3.3819,-3.3831,-3.3831,-3.379,-3.3815,-3.3793,-3.3784,-3.3773,-3.3791,-3.375,-3.3775,-3.378,-3.3787,-3.3798,-3.3599,-3.3791,-3.379,-3.379,-3.3789,-3.3789,0,-3.4045,-3.4023,-3.4035,-3.4023,-3.4033,-3.3974,-3.3961,-3.3973,-3.3995,-3.398,-3.3986,-3.4005,-3.4016,-3.3976,-3.3981,-3.4004,-3.3976,-3.4008,-3.4004,-3.4001,-3.3835,-3.382,-3.403,-3.403,-3.403,-3.403,-3.403,-3.403,-3.4154,-3.4202,-3.4169,-3.4209,-3.4187,-3.4209,-3.4206,-3.42,-3.4187,-3.4211,-3.4219,-3.4193,-3.4167,-3.417,-3.4178,-3.4166,-3.4171,-3.4212,-3.4191,-3.4036,-3.4013,-3.399,-3.3975,-3.4215,-3.4215,-3.4355,-3.4356,-3.4357]},{"header":{"parameterUnit":"m.s-1","parameterCategory":1,"la1":30.2991,"la2":30.254,"lo1":-89.0895,"lo2":-89.0444,"dy":0.0017,"dx":0.0017,"nx":28,"ny":28,"refTime":"2023-08-21T21:00:00:Z","depth":0,"parameterNumber":3,"parameterNumberName":"V-component_of_WINDS"},"data":[0,0,0,0,0,0,0,0,0,0,0,0,0,0,0,0,0,0,0,0,0,0,0,0,0,0,0,0,0,0,0,0,0,0,0,0,0,0,0,0,0,0,0,0,0,0,0,0,0,0,0,0,0,0,0,0,0,0,0.1272,0.1271,0,0.1198,0.1197,0.1197,0.1119,0.1118,0.1116,0.1115,0.1039,0.1038,0.1037,0,0,0,0,0,0,0,0,0,0,0,0,0,0.1346,0.1345,0.1272,0.1271,0.127,0.1198,0.1197,0.1196,0.1119,0.1117,0.1116,0.1115,0.1039,0.1038,0.1037,0,0,0,0,0,0,0,0,0,0,0,0,0,0.1297,0.1344,0.1272,0.1223,0.1218,0.1199,0.1197,0.1196,0.1119,0.1117,0.1116,0.1114,0.104,0.1038,0.1037,0.106,0,0,0.1032,0.1031,0,0,0,0,0,0,0,0,0.13,0.1294,0.1231,0.1226,0.1221,0.1166,0.1195,0.115,0.112,0.1157,0.1115,0.1113,0.1082,0.1077,0.1067,0.1056,0.1053,0.1032,0.1031,0.103,0.103,0,0,0,0,0,0,0,0.1303,0.1297,0.1243,0.123,0.1224,0.1204,0.1196,0.1186,0.1129,0.1153,0.1147,0.114,0.1079,0.1069,0.1065,0.1052,0.1032,0.103,0.1029,0.1029,0.1057,0.1059,0,0,0,0,0,0,0.1314,0.1301,0.1245,0.1241,0.1257,0.1205,0.1195,0.1185,0.1129,0.1119,0.1141,0.1136,0.1072,0.1066,0.1062,0.1085,0.103,0.1029,0.1028,0.1056,0.1058,0.1059,0,0,0,0,0,0,0.1316,0.131,0.1248,0.1269,0.126,0.1205,0.1195,0.1185,0.1174,0.112,0.111,0.1141,0.1071,0.1064,0.1061,0.1081,0.1028,0.1027,0.1054,0.1056,0.1059,0.1133,0,0,0,0,0,0,0.1319,0.1311,0.1319,0.127,0.1259,0.1249,0.1196,0.1184,0.1172,0.1165,0.1117,0.1108,0.1069,0.1064,0.106,0.1078,0.1025,0.1051,0.1055,0.1058,0.1128,0.1138,0.1146,0,0,0,0,0,0.1322,0.1343,0.132,0.1314,0.1268,0.125,0.1244,0.1199,0.1174,0.1181,0.1147,0.1109,0.108,0.1064,0.1059,0.1077,0.105,0.1054,0.1057,0.1125,0.1136,0.1146,0,0,0,0,0,0,0.1395,0.1335,0.131,0.1316,0.1289,0.1237,0.1245,0.1212,0.1192,0.1186,0.1131,0.1121,0.1125,0.1101,0.1084,0.1098,0.106,0.1063,0.1113,0.1123,0.1132,0.1137,0.1024,0,0,0,0,0,0.1413,0.1404,0.1352,0.1362,0.135,0.1301,0.1291,0.1259,0.1229,0.1217,0.1182,0.1154,0.1139,0.113,0.1113,0.1125,0.1114,0.1136,0.1144,0.1152,0.1154,0.116,0.1169,0.1072,0.1072,0.1072,0,0,0.1448,0.1414,0.1411,0.1376,0.1351,0.1343,0.1291,0.1285,0.1278,0.1216,0.1211,0.1185,0.115,0.1156,0.1156,0.1136,0.1179,0.1156,0.1163,0.1161,0.1165,0.1174,0.1182,0.1074,0.1074,0.1073,0,0,0.1507,0.1481,0.1487,0.1464,0.1427,0.1395,0.1397,0.135,0.1331,0.1326,0.1279,0.1271,0.1245,0.1222,0.1207,0.1261,0.1225,0.1257,0.1302,0.1308,0.1315,0.1322,0.1341,0.1348,0.126,0.126,0.126,0,0.1555,0.1541,0.1494,0.149,0.1476,0.1421,0.1426,0.1406,0.1366,0.1358,0.1336,0.1304,0.1276,0.1276,0.1289,0.1279,0.1279,0.1261,0.1318,0.1324,0.1329,0.1347,0.1354,0.1264,0.1264,0.1263,0.1263,0,0.1601,0.1593,0.1602,0.1566,0.1553,0.1554,0.1507,0.15,0.147,0.144,0.1436,0.1401,0.1376,0.1374,0.1344,0.137,0.1358,0.1328,0.1289,0.1344,0.1359,0.1365,0.127,0.1269,0.1267,0.1266,0,0,0.1703,0.1643,0.1647,0.163,0.1587,0.1579,0.1579,0.1555,0.155,0.1525,0.1523,0.1504,0.1476,0.1459,0.1426,0.1432,0.1477,0.1401,0.1399,0.1416,0.1503,0.1526,0.1534,0.1454,0.1455,0.1456,0.1506,0,0.1755,0.175,0.1709,0.1716,0.1707,0.1655,0.1655,0.1629,0.1601,0.159,0.1559,0.1546,0.1511,0.15,0.1504,0.1471,0.1493,0.1467,0.1451,0.1451,0.146,0.1542,0.1566,0.1615,0.1512,0.1513,0.1514,0,0.1813,0.1793,0.18,0.1758,0.1753,0.1753,0.1729,0.1719,0.1689,0.1668,0.1651,0.1614,0.1611,0.1575,0.157,0.1553,0.1544,0.1527,0.1528,0.1524,0.1485,0.154,0.163,0.1637,0.1523,0.1522,0.1521,0,0.1887,0.1861,0.1862,0.185,0.1801,0.1802,0.1782,0.175,0.1739,0.1718,0.1711,0.169,0.1678,0.1662,0.1621,0.1599,0.1621,0.1582,0.1604,0.1605,0.1609,0.1609,0.1698,0.1606,0.1605,0.1605,0.1605,0,0.1948,0.1954,0.1895,0.1895,0.1901,0.1853,0.186,0.1835,0.1807,0.1802,0.1756,0.1752,0.1699,0.1689,0.1657,0.1657,0.1653,0.1636,0.1627,0.1639,0.1642,0.1632,0.1627,0.1607,0.1607,0.1606,0.1606,0,0.203,0.1991,0.1988,0.1943,0.1932,0.1938,0.1899,0.1898,0.1868,0.1862,0.1858,0.1812,0.1798,0.1756,0.1731,0.171,0.172,0.1704,0.173,0.1724,0.1749,0.1747,0.1834,0.1843,0.1746,0.1747,0.1747,0,0.2072,0.2075,0.2031,0.2025,0.2007,0.1997,0.1986,0.194,0.193,0.1897,0.19,0.1883,0.1866,0.1847,0.1811,0.1792,0.1774,0.1806,0.1771,0.1784,0.1774,0.1775,0.1775,0.1814,0.1815,0.1816,0.1817,0,0.2149,0.213,0.2115,0.2095,0.2084,0.2065,0.2044,0.2042,0.199,0.1982,0.1968,0.1955,0.1931,0.1915,0.189,0.1869,0.1835,0.1829,0.1833,0.1845,0.186,0.1852,0.175,0.1826,0.1825,0.1825,0.1824,0.1824,0.2211,0.2212,0.2182,0.2168,0.2148,0.213,0.2127,0.2097,0.2085,0.2062,0.2036,0.2025,0.1995,0.196,0.1942,0.1932,0.1914,0.1919,0.1921,0.1923,0.1929,0.1863,0.1928,0.1927,0.1927,0.1927,0.1927,0,0.2286,0.2264,0.2252,0.2225,0.2214,0.2184,0.216,0.2153,0.2144,0.212,0.2105,0.2089,0.2074,0.2037,0.2018,0.2018,0.2002,0.2015,0.2013,0.2009,0.1946,0.1945,0.2028,0.2028,0.2028,0.2028,0.2028,0.2028,0.2323,0.2324,0.2301,0.2292,0.227,0.2259,0.2248,0.2231,0.2212,0.2196,0.2183,0.216,0.2131,0.211,0.2095,0.2084,0.2079,0.2097,0.2082,0.2023,0.2014,0.2004,0.2002,0.2097,0.2097,0.2145,0.2146,0.2146]}]]